Location: Seattle
(47.6064°N, 122.3308°W)
Time: 01:08:52
(UTC-07:00)

STRAND 1 - Pass Details

Date: 09 April 2023
Orbit: 767 x 779 km, 98.4° (Epoch: 02 June)

Event Time Altitude Azimuth Distance (km) Brightness Sun altitude
Rises 21:57:09 0° 358° (N) 3,250 ? -20.0°
Reaches altitude 10° 22:00:43 10° 332° (NNW) 2,318 ? -20.5°
Maximum altitude 22:02:58 13° 306° (NW) 2,108 ? -20.8°
Drops below altitude 10° 22:05:13 10° 279° (W) 2,312 ? -21.1°
Sets 22:08:47 0° 253° (WSW) 3,235 ? -21.5°
